FENGYUN 1C DEB, 29796

Orbit data source: Space-Track

FENGYUN 1C DEB, 29796 is space debris in SSO originally from a launch on Mon, 10 May 1999 UTC launched from the Taiyaun Space Center, China (TSC). Fengyun 1C debris stems from the Chinese weather satellite Fengyun-1C, which was intentionally destroyed by a Chinese anti-satellite missile in 2007. This event dramatically increased the amount of space debris, with thousands of trackable fragments posing hazards to satellites and human spaceflight. The Fengyun 1C debris cloud has become a focal point in discussions about space sustainability and the need for international regulations to prevent the creation of new debris.

Loading next visibility...
Identifier
29796, 1999-025CN
Orbit
SSO
Country
Flag of CNCN / PRC
Related business
Manufacturer
Unknown
Mission
Spacecraft
Bus & Motor
Unknown
Mass
Unknown
Launch date (UTC)
1999-05-10 (27 years ago)
Launch vehicle
Unknown
Launch site
Taiyaun Space Center, China (TSC)
Object type
Payload
Rocket body
Debris
Shape & HBR
Unknown shape, 0.2 m
Radar Cross Section
Small (<0.1 m²)

Expand to show TLE details & history
Last TLE update: 18 hours ago

TLE from 18 hours ago
0 FENGYUN 1C DEB
1 29796U 99025CN  25340.95354258  .00002000  00000-0  10962-2 0  9995
2 29796  98.8653  32.8893 0051704 284.5267 202.1845 14.12315379969796
Epoch: 2025-12-06T22:53Z
TLE epoch observation values (Epoch: 2025-12-06T22:53:06.078Z)
Latitude
52.69551°
Longitude
165.39°
Altitude
894.644 km
Speed
7.392 km/s
True Right ascension
14h 58m 33s
True Declination
52° 31' 58"
Sunlit
Object was in daylight at epoch
Visualization orbit readout
Latitude
Unknown
Longitude
Unknown
Altitude
Unknown
Speed
Unknown
Apparent Right ascension
Unknown
Apparent Declination
Unknown
Sunlit
N/A
Visualization observer readout
Local Sidereal Time
15:10:44
Azimuth
Unknown
Elevation
Unknown
Doppler factor
Unknown
Orbital elements
Apogee altitude
886.001 km
Perigee altitude
811.27 km
Semi-major axis
7,226.773 km
Eccentricity
0.00517
Inclination
98.8653°
RAAN
32.8893°
Arg. of periapsis
284.5267°
True anomaly
201.96212°
Mean anomaly
202.1845°
Eccentric anomaly
202.07318°
Mean motion
3.53286 °/min
Orbital period
101.9 mins
BSTAR
0.0010962
Loading maneuver chart data...
Computing Atmospheric mass density...

Documentation

Showing up to 5 results
|